Year,Month,Day,Hour,Minute,Value (Times are PST for temperature in C)
2015,03,21,00,00,3.40
2015,03,21,00,01,3.30
2015,03,21,00,02,3.30
2015,03,21,00,03,3.30
2015,03,21,00,04,3.30
2015,03,21,00,05,3.30
2015,03,21,00,06,3.30
2015,03,21,00,07,3.30
2015,03,21,00,08,3.30
2015,03,21,00,09,3.30
2015,03,21,00,10,3.30
2015,03,21,00,11,3.30
2015,03,21,00,12,3.30
2015,03,21,00,13,3.30
2015,03,21,00,14,3.30
2015,03,21,00,15,3.30
2015,03,21,00,16,3.30
2015,03,21,00,17,3.30
2015,03,21,00,18,3.30
2015,03,21,00,19,3.30
2015,03,21,00,20,3.30
2015,03,21,00,21,3.30
2015,03,21,00,22,3.30
2015,03,21,00,23,3.30
2015,03,21,00,24,3.30
2015,03,21,00,25,3.30
2015,03,21,00,26,3.30
2015,03,21,00,27,3.30
2015,03,21,00,28,3.30
2015,03,21,00,29,3.30
2015,03,21,00,30,3.30
2015,03,21,00,31,2.80
2015,03,21,00,32,2.80
2015,03,21,00,33,2.80
2015,03,21,00,34,2.80
2015,03,21,00,35,2.80
2015,03,21,00,36,2.80
2015,03,21,00,37,2.80
2015,03,21,00,38,2.80
2015,03,21,00,39,2.80
2015,03,21,00,40,2.80
2015,03,21,00,41,2.80
2015,03,21,00,42,2.80
2015,03,21,00,43,2.80
2015,03,21,00,44,2.80
2015,03,21,00,45,2.80
2015,03,21,00,46,2.80
2015,03,21,00,47,2.80
2015,03,21,00,48,2.80
2015,03,21,00,49,2.80
2015,03,21,00,50,2.80
2015,03,21,00,51,2.80
2015,03,21,00,52,2.80
2015,03,21,00,53,2.80
2015,03,21,00,54,2.80
2015,03,21,00,55,2.80
2015,03,21,00,56,2.80
2015,03,21,00,57,2.80
2015,03,21,00,58,2.80
2015,03,21,00,59,2.80
2015,03,21,01,00,2.80
2015,03,21,01,01,2.80
2015,03,21,01,02,2.70
2015,03,21,01,03,2.70
2015,03,21,01,04,2.70
2015,03,21,01,05,2.70
2015,03,21,01,06,2.70
2015,03,21,01,07,2.70
2015,03,21,01,08,2.70
2015,03,21,01,09,2.70
2015,03,21,01,10,2.70
2015,03,21,01,11,2.70
2015,03,21,01,12,2.70
2015,03,21,01,13,2.70
2015,03,21,01,14,2.70
2015,03,21,01,15,2.70
2015,03,21,01,16,2.70
2015,03,21,01,17,2.70
2015,03,21,01,18,2.70
2015,03,21,01,19,2.70
2015,03,21,01,20,2.70
2015,03,21,01,21,2.70
2015,03,21,01,22,2.70
2015,03,21,01,23,2.70
2015,03,21,01,24,2.70
2015,03,21,01,25,2.70
2015,03,21,01,26,2.70
2015,03,21,01,27,2.70
2015,03,21,01,28,2.70
2015,03,21,01,29,2.70
2015,03,21,01,30,2.70
2015,03,21,01,31,2.50
2015,03,21,01,32,2.50
2015,03,21,01,33,2.50
2015,03,21,01,34,2.50
2015,03,21,01,35,2.50
2015,03,21,01,36,2.50
2015,03,21,01,37,2.50
2015,03,21,01,38,2.50
2015,03,21,01,39,2.50
2015,03,21,01,40,2.50
2015,03,21,01,41,2.50
2015,03,21,01,42,2.50
2015,03,21,01,43,2.50
2015,03,21,01,44,2.50
2015,03,21,01,45,2.50
2015,03,21,01,46,2.10
2015,03,21,01,47,2.10
2015,03,21,01,48,2.10
2015,03,21,01,49,2.10
2015,03,21,01,50,2.10
2015,03,21,01,51,2.10
2015,03,21,01,52,2.10
2015,03,21,01,53,2.10
2015,03,21,01,54,2.10
2015,03,21,01,55,2.10
2015,03,21,01,56,2.10
2015,03,21,01,57,2.10
2015,03,21,01,58,2.10
2015,03,21,01,59,2.10
2015,03,21,02,00,2.10
2015,03,21,02,01,1.90
2015,03,21,02,02,1.90
2015,03,21,02,03,1.90
2015,03,21,02,04,1.90
2015,03,21,02,05,1.90
2015,03,21,02,06,1.90
2015,03,21,02,07,1.90
2015,03,21,02,08,1.90
2015,03,21,02,09,1.90
2015,03,21,02,10,1.90
2015,03,21,02,11,1.90
2015,03,21,02,12,1.90
2015,03,21,02,13,1.90
2015,03,21,02,14,1.90
2015,03,21,02,15,1.90
2015,03,21,02,16,1.80
2015,03,21,02,17,1.80
2015,03,21,02,18,1.80
2015,03,21,02,19,1.80
2015,03,21,02,20,1.80
2015,03,21,02,21,1.80
2015,03,21,02,22,1.80
2015,03,21,02,23,1.80
2015,03,21,02,24,1.80
2015,03,21,02,25,1.80
2015,03,21,02,26,1.80
2015,03,21,02,27,1.80
2015,03,21,02,28,1.80
2015,03,21,02,29,1.80
2015,03,21,02,30,1.80
2015,03,21,02,31,1.50
2015,03,21,02,32,1.50
2015,03,21,02,33,1.50
2015,03,21,02,34,1.50
2015,03,21,02,35,1.50
2015,03,21,02,36,1.50
2015,03,21,02,37,1.50
2015,03,21,02,38,1.50
2015,03,21,02,39,1.50
2015,03,21,02,40,1.50
2015,03,21,02,41,1.50
2015,03,21,02,42,1.50
2015,03,21,02,43,1.50
2015,03,21,02,44,1.50
2015,03,21,02,45,1.50
2015,03,21,02,46,1.30
2015,03,21,02,47,1.30
2015,03,21,02,48,1.30
2015,03,21,02,49,1.30
2015,03,21,02,50,1.30
2015,03,21,02,51,1.30
2015,03,21,02,52,1.30
2015,03,21,02,53,1.30
2015,03,21,02,54,1.30
2015,03,21,02,55,1.30
2015,03,21,02,56,1.30
2015,03,21,02,57,1.30
2015,03,21,02,58,1.30
2015,03,21,02,59,1.30
2015,03,21,03,00,1.30
2015,03,21,03,01,1.20
2015,03,21,03,02,1.20
2015,03,21,03,03,1.20
2015,03,21,03,04,1.20
2015,03,21,03,05,1.20
2015,03,21,03,06,1.20
2015,03,21,03,07,1.20
2015,03,21,03,08,1.20
2015,03,21,03,09,1.20
2015,03,21,03,10,1.20
2015,03,21,03,11,1.20
2015,03,21,03,12,1.20
2015,03,21,03,13,1.20
2015,03,21,03,14,1.20
2015,03,21,03,15,1.20
2015,03,21,03,16,1.10
2015,03,21,03,17,1.10
2015,03,21,03,18,1.10
2015,03,21,03,19,1.10
2015,03,21,03,20,1.10
2015,03,21,03,21,1.10
2015,03,21,03,22,1.10
2015,03,21,03,23,1.10
2015,03,21,03,24,1.10
2015,03,21,03,25,1.10
2015,03,21,03,26,1.10
2015,03,21,03,27,1.10
2015,03,21,03,28,1.10
2015,03,21,03,29,1.10
2015,03,21,03,30,1.10
2015,03,21,03,31,1.10
2015,03,21,03,32,1.10
2015,03,21,03,33,1.10
2015,03,21,03,34,1.10
2015,03,21,03,35,1.10
2015,03,21,03,36,1.10
2015,03,21,03,37,1.10
2015,03,21,03,38,1.10
2015,03,21,03,39,1.10
2015,03,21,03,40,1.10
2015,03,21,03,41,1.10
2015,03,21,03,42,1.10
2015,03,21,03,43,1.10
2015,03,21,03,44,1.10
2015,03,21,03,45,1.10
2015,03,21,03,46,1.10
2015,03,21,03,47,1.10
2015,03,21,03,48,1.10
2015,03,21,03,49,1.10
2015,03,21,03,50,1.10
2015,03,21,03,51,1.10
2015,03,21,03,52,1.10
2015,03,21,03,53,1.10
2015,03,21,03,54,1.10
2015,03,21,03,55,1.10
2015,03,21,03,56,1.10
2015,03,21,03,57,1.10
2015,03,21,03,58,1.10
2015,03,21,03,59,1.10
2015,03,21,04,00,1.10
2015,03,21,04,01,1.10
2015,03,21,04,02,1.10
2015,03,21,04,03,1.10
2015,03,21,04,04,1.10
2015,03,21,04,05,1.10
2015,03,21,04,06,1.10
2015,03,21,04,07,1.10
2015,03,21,04,08,1.10
2015,03,21,04,09,1.10
2015,03,21,04,10,1.10
2015,03,21,04,11,1.10
2015,03,21,04,12,1.10
2015,03,21,04,13,1.10
2015,03,21,04,14,1.10
2015,03,21,04,15,1.10
2015,03,21,04,16,1.20
2015,03,21,04,17,1.20
2015,03,21,04,18,1.20
2015,03,21,04,19,1.20
2015,03,21,04,20,1.20
2015,03,21,04,21,1.20
2015,03,21,04,22,1.20
2015,03,21,04,23,1.20
2015,03,21,04,24,1.20
2015,03,21,04,25,1.20
2015,03,21,04,26,1.20
2015,03,21,04,27,1.20
2015,03,21,04,28,1.20
2015,03,21,04,29,1.20
2015,03,21,04,30,1.20
2015,03,21,04,31,1.20
2015,03,21,04,32,1.20
2015,03,21,04,33,1.20
2015,03,21,04,34,1.20
2015,03,21,04,35,1.20
2015,03,21,04,36,1.20
2015,03,21,04,37,1.20
2015,03,21,04,38,1.20
2015,03,21,04,39,1.20
2015,03,21,04,40,1.20
2015,03,21,04,41,1.20
2015,03,21,04,42,1.20
2015,03,21,04,43,1.20
2015,03,21,04,44,1.20
2015,03,21,04,45,1.20
2015,03,21,04,46,1.20
2015,03,21,04,47,1.20
2015,03,21,04,48,1.20
2015,03,21,04,49,1.20
2015,03,21,04,50,1.20
2015,03,21,04,51,1.20
2015,03,21,04,52,1.20
2015,03,21,04,53,1.20
2015,03,21,04,54,1.20
2015,03,21,04,55,1.20
2015,03,21,04,56,1.20
2015,03,21,04,57,1.20
2015,03,21,04,58,1.20
2015,03,21,04,59,1.20
2015,03,21,05,00,1.20
2015,03,21,05,01,1.20
2015,03,21,05,02,1.20
2015,03,21,05,03,1.20
2015,03,21,05,04,1.20
2015,03,21,05,05,1.20
2015,03,21,05,06,1.20
2015,03,21,05,07,1.20
2015,03,21,05,08,1.20
2015,03,21,05,09,1.20
2015,03,21,05,10,1.20
2015,03,21,05,11,1.20
2015,03,21,05,12,1.20
2015,03,21,05,13,1.20
2015,03,21,05,14,1.20
2015,03,21,05,15,1.20
2015,03,21,05,16,1.30
2015,03,21,05,17,1.30
2015,03,21,05,18,1.30
2015,03,21,05,19,1.30
2015,03,21,05,20,1.30
2015,03,21,05,21,1.30
2015,03,21,05,22,1.30
2015,03,21,05,23,1.30
2015,03,21,05,24,1.30
2015,03,21,05,25,1.30
2015,03,21,05,26,1.30
2015,03,21,05,27,1.30
2015,03,21,05,28,1.30
2015,03,21,05,29,1.30
2015,03,21,05,30,1.30
2015,03,21,05,31,1.30
2015,03,21,05,32,1.20
2015,03,21,05,33,1.20
2015,03,21,05,34,1.20
2015,03,21,05,35,1.20
2015,03,21,05,36,1.20
2015,03,21,05,37,1.20
2015,03,21,05,38,1.20
2015,03,21,05,39,1.20
2015,03,21,05,40,1.20
2015,03,21,05,41,1.20
2015,03,21,05,42,1.20
2015,03,21,05,43,1.20
2015,03,21,05,44,1.20
2015,03,21,05,45,1.20
2015,03,21,05,46,1.20
2015,03,21,05,47,1.20
2015,03,21,05,48,1.20
2015,03,21,05,49,1.20
2015,03,21,05,50,1.20
2015,03,21,05,51,1.20
2015,03,21,05,52,1.20
2015,03,21,05,53,1.20
2015,03,21,05,54,1.20
2015,03,21,05,55,1.20
2015,03,21,05,56,1.20
2015,03,21,05,57,1.20
2015,03,21,05,58,1.20
2015,03,21,05,59,1.20
2015,03,21,06,00,1.20
2015,03,21,06,02,1.20
2015,03,21,06,03,1.20
2015,03,21,06,04,1.20
2015,03,21,06,05,1.20
2015,03,21,06,06,1.20
2015,03,21,06,07,1.20
2015,03,21,06,08,1.20
2015,03,21,06,09,1.20
2015,03,21,06,10,1.20
2015,03,21,06,11,1.20
2015,03,21,06,12,1.20
2015,03,21,06,13,1.20
2015,03,21,06,14,1.20
2015,03,21,06,15,1.20
2015,03,21,06,16,1.20
2015,03,21,06,17,1.20
2015,03,21,06,18,1.20
2015,03,21,06,19,1.20
2015,03,21,06,20,1.20
2015,03,21,06,21,1.20
2015,03,21,06,22,1.20
2015,03,21,06,23,1.20
2015,03,21,06,24,1.20
2015,03,21,06,25,1.20
2015,03,21,06,26,1.20
2015,03,21,06,27,1.20
2015,03,21,06,28,1.20
2015,03,21,06,29,1.20
2015,03,21,06,30,1.20
2015,03,21,06,31,1.20
2015,03,21,06,32,1.20
2015,03,21,06,33,1.20
2015,03,21,06,34,1.20
2015,03,21,06,35,1.20
2015,03,21,06,36,1.20
2015,03,21,06,37,1.20
2015,03,21,06,38,1.20
2015,03,21,06,39,1.20
2015,03,21,06,40,1.20
2015,03,21,06,41,1.20
2015,03,21,06,42,1.20
2015,03,21,06,43,1.20
2015,03,21,06,44,1.20
2015,03,21,06,45,1.20
2015,03,21,06,46,1.20
2015,03,21,06,47,1.20
2015,03,21,06,48,1.20
2015,03,21,06,49,1.20
2015,03,21,06,50,1.20
2015,03,21,06,51,1.20
2015,03,21,06,52,1.20
2015,03,21,06,53,1.20
2015,03,21,06,54,1.20
2015,03,21,06,55,1.20
2015,03,21,06,56,1.20
2015,03,21,06,57,1.20
2015,03,21,06,58,1.20
2015,03,21,06,59,1.20
2015,03,21,07,00,1.20
2015,03,21,07,01,1.10
2015,03,21,07,02,1.10
2015,03,21,07,03,1.10
2015,03,21,07,04,1.10
2015,03,21,07,05,1.10
2015,03,21,07,06,1.10
2015,03,21,07,07,1.10
2015,03,21,07,08,1.10
2015,03,21,07,09,1.10
2015,03,21,07,10,1.10
2015,03,21,07,11,1.10
2015,03,21,07,12,1.10
2015,03,21,07,13,1.10
2015,03,21,07,14,1.10
2015,03,21,07,15,1.10
2015,03,21,07,16,1.10
2015,03,21,07,17,1.10
2015,03,21,07,18,1.10
2015,03,21,07,19,1.10
2015,03,21,07,20,1.10
2015,03,21,07,21,1.10
2015,03,21,07,22,1.10
2015,03,21,07,23,1.10
2015,03,21,07,24,1.10
2015,03,21,07,25,1.10
2015,03,21,07,26,1.10
2015,03,21,07,27,1.10
2015,03,21,07,28,1.10
2015,03,21,07,29,1.10
2015,03,21,07,30,1.10
2015,03,21,07,31,1.10
2015,03,21,07,32,1.10
2015,03,21,07,33,1.10
2015,03,21,07,34,1.10
2015,03,21,07,35,1.10
2015,03,21,07,36,1.10
2015,03,21,07,37,1.10
2015,03,21,07,38,1.10
2015,03,21,07,39,1.10
2015,03,21,07,40,1.10
2015,03,21,07,41,1.10
2015,03,21,07,42,1.10
2015,03,21,07,43,1.10
2015,03,21,07,44,1.10
2015,03,21,07,45,1.10
2015,03,21,07,46,1.20
2015,03,21,07,47,1.20
2015,03,21,07,48,1.20
2015,03,21,07,49,1.20
2015,03,21,07,50,1.20
2015,03,21,07,51,1.20
2015,03,21,07,52,1.20
2015,03,21,07,53,1.20
2015,03,21,07,54,1.20
2015,03,21,07,55,1.20
2015,03,21,07,56,1.20
2015,03,21,07,57,1.20
2015,03,21,07,58,1.20
2015,03,21,07,59,1.20
2015,03,21,08,00,1.20
2015,03,21,08,01,1.10
2015,03,21,08,02,1.10
2015,03,21,08,03,1.10
2015,03,21,08,04,1.10
2015,03,21,08,05,1.10
2015,03,21,08,06,1.10
2015,03,21,08,07,1.10
2015,03,21,08,08,1.10
2015,03,21,08,09,1.10
2015,03,21,08,10,1.10
2015,03,21,08,11,1.10
2015,03,21,08,12,1.10
2015,03,21,08,13,1.10
2015,03,21,08,14,1.10
2015,03,21,08,15,1.10
2015,03,21,08,16,1.10
2015,03,21,08,17,1.10
2015,03,21,08,18,1.10
2015,03,21,08,19,1.10
2015,03,21,08,20,1.10
2015,03,21,08,21,1.10
2015,03,21,08,22,1.10
2015,03,21,08,23,1.10
2015,03,21,08,24,1.10
2015,03,21,08,25,1.10
2015,03,21,08,26,1.10
2015,03,21,08,27,1.10
2015,03,21,08,28,1.10
2015,03,21,08,29,1.10
2015,03,21,08,30,1.10
2015,03,21,08,31,1.20
2015,03,21,08,32,1.20
2015,03,21,08,33,1.20
2015,03,21,08,34,1.20
2015,03,21,08,35,1.20
2015,03,21,08,36,1.20
2015,03,21,08,37,1.20
2015,03,21,08,38,1.20
2015,03,21,08,39,1.20
2015,03,21,08,40,1.20
2015,03,21,08,41,1.20
2015,03,21,08,42,1.20
2015,03,21,08,43,1.20
2015,03,21,08,44,1.20
2015,03,21,08,45,1.20
2015,03,21,08,46,1.30
2015,03,21,08,47,1.30
2015,03,21,08,48,1.30
2015,03,21,08,49,1.30
2015,03,21,08,50,1.30
2015,03,21,08,51,1.30
2015,03,21,08,52,1.30
2015,03,21,08,53,1.30
2015,03,21,08,54,1.30
2015,03,21,08,55,1.30
2015,03,21,08,56,1.30
2015,03,21,08,57,1.30
2015,03,21,08,58,1.30
2015,03,21,08,59,1.30
2015,03,21,09,00,1.30
2015,03,21,09,01,1.60
2015,03,21,09,02,1.60
2015,03,21,09,03,1.60
2015,03,21,09,04,1.60
2015,03,21,09,05,1.60
2015,03,21,09,06,1.60
2015,03,21,09,07,1.60
2015,03,21,09,08,1.60
2015,03,21,09,09,1.60
2015,03,21,09,10,1.60
2015,03,21,09,11,1.60
2015,03,21,09,12,1.60
2015,03,21,09,13,1.60
2015,03,21,09,14,1.60
2015,03,21,09,15,1.60
2015,03,21,09,16,1.80
2015,03,21,09,17,1.80
2015,03,21,09,18,1.80
2015,03,21,09,19,1.80
2015,03,21,09,20,1.80
2015,03,21,09,21,1.80
2015,03,21,09,22,1.80
2015,03,21,09,23,1.80
2015,03,21,09,24,1.80
2015,03,21,09,25,1.80
2015,03,21,09,26,1.80
2015,03,21,09,27,1.80
2015,03,21,09,28,1.80
2015,03,21,09,29,1.80
2015,03,21,09,30,1.80
2015,03,21,09,31,1.80
2015,03,21,09,32,1.80
2015,03,21,09,33,1.80
2015,03,21,09,34,1.80
2015,03,21,09,35,1.80
2015,03,21,09,36,1.80
2015,03,21,09,37,1.80
2015,03,21,09,38,1.80
2015,03,21,09,39,1.80
2015,03,21,09,40,1.80
2015,03,21,09,41,1.80
2015,03,21,09,42,1.80
2015,03,21,09,43,1.80
2015,03,21,09,44,1.80
2015,03,21,09,45,1.80
2015,03,21,09,46,2.00
2015,03,21,09,47,2.00
2015,03,21,09,48,2.00
2015,03,21,09,49,2.00
2015,03,21,09,50,2.00
2015,03,21,09,51,2.00
2015,03,21,09,52,2.00
2015,03,21,09,53,2.00
2015,03,21,09,54,2.00
2015,03,21,09,55,2.00
2015,03,21,09,56,2.00
2015,03,21,09,57,2.00
2015,03,21,09,58,2.00
2015,03,21,09,59,2.00
2015,03,21,10,00,2.00
2015,03,21,10,01,2.30
2015,03,21,10,02,2.30
2015,03,21,10,03,2.30
2015,03,21,10,04,2.30
2015,03,21,10,05,2.30
2015,03,21,10,06,2.30
2015,03,21,10,07,2.30
2015,03,21,10,08,2.30
2015,03,21,10,09,2.30
2015,03,21,10,10,2.30
2015,03,21,10,11,2.30
2015,03,21,10,12,2.30
2015,03,21,10,13,2.30
2015,03,21,10,14,2.30
2015,03,21,10,15,2.30
2015,03,21,10,16,2.40
2015,03,21,10,17,2.40
2015,03,21,10,18,2.40
2015,03,21,10,19,2.40
2015,03,21,10,20,2.40
2015,03,21,10,21,2.40
2015,03,21,10,22,2.40
2015,03,21,10,23,2.40
2015,03,21,10,24,2.40
2015,03,21,10,25,2.40
2015,03,21,10,26,2.40
2015,03,21,10,27,2.40
2015,03,21,10,28,2.40
2015,03,21,10,29,2.40
2015,03,21,10,30,2.40
2015,03,21,10,31,3.10
2015,03,21,10,32,3.10
2015,03,21,10,33,3.10
2015,03,21,10,34,3.10
2015,03,21,10,35,3.10
2015,03,21,10,36,3.10
2015,03,21,10,37,3.10
2015,03,21,10,38,3.10
2015,03,21,10,39,3.10
2015,03,21,10,40,3.10
2015,03,21,10,41,3.10
2015,03,21,10,42,3.10
2015,03,21,10,43,3.10
2015,03,21,10,44,3.10
2015,03,21,10,45,3.10
2015,03,21,10,46,3.40
2015,03,21,10,47,3.40
2015,03,21,10,48,3.40
2015,03,21,10,49,3.40
2015,03,21,10,50,3.40
2015,03,21,10,51,3.40
2015,03,21,10,52,3.40
2015,03,21,10,53,3.40
2015,03,21,10,54,3.40
2015,03,21,10,55,3.40
2015,03,21,10,56,3.40
2015,03,21,10,57,3.40
2015,03,21,10,58,3.40
2015,03,21,10,59,3.40
2015,03,21,11,00,3.40
2015,03,21,11,01,3.80
2015,03,21,11,02,3.80
2015,03,21,11,03,3.80
2015,03,21,11,04,3.80
2015,03,21,11,05,3.80
2015,03,21,11,06,3.80
2015,03,21,11,07,3.80
2015,03,21,11,08,3.80
2015,03,21,11,09,3.80
2015,03,21,11,10,3.80
2015,03,21,11,11,3.80
2015,03,21,11,12,3.80
2015,03,21,11,13,3.80
2015,03,21,11,14,3.80
2015,03,21,11,15,3.80
2015,03,21,11,16,4.60
2015,03,21,11,17,4.60
2015,03,21,11,18,4.60
2015,03,21,11,19,4.60
2015,03,21,11,20,4.60
2015,03,21,11,21,4.60
2015,03,21,11,22,4.60
2015,03,21,11,23,4.60
2015,03,21,11,24,4.60
2015,03,21,11,25,4.60
2015,03,21,11,26,4.60
2015,03,21,11,27,4.60
2015,03,21,11,28,4.60
2015,03,21,11,29,4.60
2015,03,21,11,30,4.60
2015,03,21,11,31,4.90
2015,03,21,11,32,4.90
2015,03,21,11,33,4.90
2015,03,21,11,34,4.90
2015,03,21,11,35,4.90
2015,03,21,11,36,4.90
2015,03,21,11,37,4.90
2015,03,21,11,38,4.90
2015,03,21,11,39,4.90
2015,03,21,11,40,4.90
2015,03,21,11,41,4.90
2015,03,21,11,42,4.90
2015,03,21,11,43,4.90
2015,03,21,11,44,4.90
2015,03,21,11,45,4.90
2015,03,21,11,46,4.60
2015,03,21,11,47,4.60
2015,03,21,11,48,4.60
2015,03,21,11,49,4.60
2015,03,21,11,50,4.60
2015,03,21,11,51,4.60
2015,03,21,11,52,4.60
2015,03,21,11,53,4.60
2015,03,21,11,54,4.60
2015,03,21,11,55,4.60
2015,03,21,11,56,4.60
2015,03,21,11,57,4.60
2015,03,21,11,58,4.60
2015,03,21,11,59,4.60
2015,03,21,12,00,4.60
2015,03,21,12,01,4.10
2015,03,21,12,02,4.10
2015,03,21,12,03,4.10
2015,03,21,12,04,4.10
2015,03,21,12,05,4.10
2015,03,21,12,06,4.10
2015,03,21,12,07,4.10
2015,03,21,12,08,4.10
2015,03,21,12,09,4.10
2015,03,21,12,10,4.10
2015,03,21,12,11,4.10
2015,03,21,12,12,4.10
2015,03,21,12,13,4.10
2015,03,21,12,14,4.10
2015,03,21,12,15,4.10
2015,03,21,12,16,4.20
2015,03,21,12,17,4.20
2015,03,21,12,18,4.20
2015,03,21,12,19,4.20
2015,03,21,12,20,4.20
2015,03,21,12,21,4.20
2015,03,21,12,22,4.20
2015,03,21,12,23,4.20
2015,03,21,12,24,4.20
2015,03,21,12,25,4.20
2015,03,21,12,26,4.20
2015,03,21,12,27,4.20
2015,03,21,12,28,4.20
2015,03,21,12,29,4.20
2015,03,21,12,30,4.20
2015,03,21,12,31,4.50
2015,03,21,12,32,4.50
2015,03,21,12,33,4.50
2015,03,21,12,34,4.50
2015,03,21,12,35,4.50
2015,03,21,12,36,4.50
2015,03,21,12,37,4.50
2015,03,21,12,38,4.50
2015,03,21,12,39,4.50
2015,03,21,12,40,4.50
2015,03,21,12,41,4.50
2015,03,21,12,42,4.50
2015,03,21,12,43,4.50
2015,03,21,12,44,4.50
2015,03,21,12,45,4.50
2015,03,21,12,46,4.30
2015,03,21,12,47,4.30
2015,03,21,12,48,4.30
2015,03,21,12,49,4.30
2015,03,21,12,50,4.30
2015,03,21,12,51,4.30
2015,03,21,12,52,4.30
2015,03,21,12,53,4.30
2015,03,21,12,54,4.30
2015,03,21,12,55,4.30
2015,03,21,12,56,4.30
2015,03,21,12,57,4.30
2015,03,21,12,58,4.30
2015,03,21,12,59,4.30
2015,03,21,13,00,4.30
2015,03,21,13,01,4.50
2015,03,21,13,02,4.50
2015,03,21,13,03,4.50
2015,03,21,13,04,4.50
2015,03,21,13,05,4.50
2015,03,21,13,06,4.50
2015,03,21,13,07,4.50
2015,03,21,13,08,4.50
2015,03,21,13,09,4.50
2015,03,21,13,10,4.50
2015,03,21,13,11,4.50
2015,03,21,13,12,4.50
2015,03,21,13,13,4.50
2015,03,21,13,14,4.50
2015,03,21,13,15,4.50
2015,03,21,13,16,4.60
2015,03,21,13,17,4.60
2015,03,21,13,18,4.60
2015,03,21,13,19,4.60
2015,03,21,13,20,4.60
2015,03,21,13,21,4.60
2015,03,21,13,22,4.60
2015,03,21,13,23,4.60
2015,03,21,13,24,4.60
2015,03,21,13,25,4.60
2015,03,21,13,26,4.60
2015,03,21,13,27,4.60
2015,03,21,13,28,4.60
2015,03,21,13,29,4.60
2015,03,21,13,30,4.60
2015,03,21,13,31,5.40
2015,03,21,13,32,5.40
2015,03,21,13,33,5.40
2015,03,21,13,34,5.40
2015,03,21,13,35,5.40
2015,03,21,13,36,5.40
2015,03,21,13,37,5.40
2015,03,21,13,38,5.40
2015,03,21,13,39,5.40
2015,03,21,13,40,5.40
2015,03,21,13,41,5.40
2015,03,21,13,42,5.40
2015,03,21,13,43,5.40
2015,03,21,13,44,5.40
2015,03,21,13,45,5.40
2015,03,21,13,46,5.30
2015,03,21,13,47,5.30
2015,03,21,13,48,5.30
2015,03,21,13,49,5.30
2015,03,21,13,50,5.30
2015,03,21,13,51,5.30
2015,03,21,13,52,5.30
2015,03,21,13,53,5.30
2015,03,21,13,54,5.30
2015,03,21,13,55,5.30
2015,03,21,13,56,5.30
2015,03,21,13,57,5.30
2015,03,21,13,58,5.30
2015,03,21,13,59,5.30
2015,03,21,14,00,5.30
2015,03,21,14,01,5.10
2015,03,21,14,02,5.10
2015,03,21,14,03,5.10
2015,03,21,14,04,5.10
2015,03,21,14,05,5.10
2015,03,21,14,06,5.10
2015,03,21,14,07,5.10
2015,03,21,14,08,5.10
2015,03,21,14,09,5.10
2015,03,21,14,10,5.10
2015,03,21,14,11,5.10
2015,03,21,14,12,5.10
2015,03,21,14,13,5.10
2015,03,21,14,14,5.10
2015,03,21,14,15,5.10
2015,03,21,14,16,5.30
2015,03,21,14,17,5.30
2015,03,21,14,18,5.30
2015,03,21,14,19,5.30
2015,03,21,14,20,5.30
2015,03,21,14,21,5.30
2015,03,21,14,22,5.30
2015,03,21,14,23,5.30
2015,03,21,14,24,5.30
2015,03,21,14,25,5.30
2015,03,21,14,26,5.30
2015,03,21,14,27,5.30
2015,03,21,14,28,5.30
2015,03,21,14,29,5.30
2015,03,21,14,30,5.30
2015,03,21,14,31,6.00
2015,03,21,14,32,6.00
2015,03,21,14,33,6.00
2015,03,21,14,34,6.00
2015,03,21,14,35,6.00
2015,03,21,14,36,6.00
2015,03,21,14,37,6.00
2015,03,21,14,38,6.00
2015,03,21,14,39,6.00
2015,03,21,14,40,6.00
2015,03,21,14,41,6.00
2015,03,21,14,42,6.00
2015,03,21,14,43,6.00
2015,03,21,14,44,6.00
2015,03,21,14,45,6.00
2015,03,21,14,46,6.30
2015,03,21,14,47,6.30
2015,03,21,14,48,6.30
2015,03,21,14,49,6.30
2015,03,21,14,50,6.30
2015,03,21,14,51,6.30
2015,03,21,14,52,6.30
2015,03,21,14,53,6.30
2015,03,21,14,54,6.30
2015,03,21,14,55,6.30
2015,03,21,14,56,6.30
2015,03,21,14,57,6.30
2015,03,21,14,58,6.30
2015,03,21,14,59,6.30
2015,03,21,15,00,6.30
2015,03,21,15,01,6.90
2015,03,21,15,02,6.90
2015,03,21,15,03,6.90
2015,03,21,15,04,6.90
2015,03,21,15,05,6.90
2015,03,21,15,06,6.90
2015,03,21,15,07,6.90
2015,03,21,15,08,6.90
2015,03,21,15,09,6.90
2015,03,21,15,10,6.90
2015,03,21,15,11,6.90
2015,03,21,15,12,6.90
2015,03,21,15,13,6.90
2015,03,21,15,14,6.90
2015,03,21,15,15,6.90
2015,03,21,15,16,7.00
2015,03,21,15,17,7.00
2015,03,21,15,18,7.00
2015,03,21,15,19,7.00
2015,03,21,15,20,7.00
2015,03,21,15,21,7.00
2015,03,21,15,22,7.00
2015,03,21,15,23,7.00
2015,03,21,15,24,7.00
2015,03,21,15,25,7.00
2015,03,21,15,26,7.00
2015,03,21,15,27,7.00
2015,03,21,15,28,7.00
2015,03,21,15,29,7.00
2015,03,21,15,30,7.00
2015,03,21,15,31,6.20
2015,03,21,15,32,6.20
2015,03,21,15,33,6.20
2015,03,21,15,34,6.20
2015,03,21,15,35,6.20
2015,03,21,15,36,6.20
2015,03,21,15,37,6.20
2015,03,21,15,38,6.20
2015,03,21,15,39,6.20
2015,03,21,15,40,6.20
2015,03,21,15,41,6.20
2015,03,21,15,42,6.20
2015,03,21,15,43,6.20
2015,03,21,15,44,6.20
2015,03,21,15,45,6.20
2015,03,21,15,46,6.70
2015,03,21,15,47,6.70
2015,03,21,15,48,6.70
2015,03,21,15,49,6.70
2015,03,21,15,50,6.70
2015,03,21,15,51,6.70
2015,03,21,15,52,6.70
2015,03,21,15,53,6.70
2015,03,21,15,54,6.70
2015,03,21,15,55,6.70
2015,03,21,15,56,6.70
2015,03,21,15,57,6.70
2015,03,21,15,58,6.70
2015,03,21,15,59,6.70
2015,03,21,16,00,6.70
2015,03,21,16,02,6.50
2015,03,21,16,03,6.50
2015,03,21,16,04,6.50
2015,03,21,16,05,6.50
2015,03,21,16,06,6.50
2015,03,21,16,07,6.50
2015,03,21,16,08,6.50
2015,03,21,16,09,6.50
2015,03,21,16,10,6.50
2015,03,21,16,11,6.50
2015,03,21,16,12,6.50
2015,03,21,16,13,6.50
2015,03,21,16,14,6.50
2015,03,21,16,15,6.50
2015,03,21,16,16,6.60
2015,03,21,16,17,6.60
2015,03,21,16,18,6.60
2015,03,21,16,19,6.60
2015,03,21,16,20,6.60
2015,03,21,16,21,6.60
2015,03,21,16,22,6.60
2015,03,21,16,23,6.60
2015,03,21,16,24,6.60
2015,03,21,16,25,6.60
2015,03,21,16,26,6.60
2015,03,21,16,27,6.60
2015,03,21,16,28,6.60
2015,03,21,16,29,6.60
2015,03,21,16,30,6.60
2015,03,21,16,31,5.40
2015,03,21,16,32,5.40
2015,03,21,16,33,5.40
2015,03,21,16,34,5.40
2015,03,21,16,35,5.40
2015,03,21,16,36,5.40
2015,03,21,16,37,5.40
2015,03,21,16,38,5.40
2015,03,21,16,39,5.40
2015,03,21,16,40,5.40
2015,03,21,16,41,5.40
2015,03,21,16,42,5.40
2015,03,21,16,43,5.40
2015,03,21,16,44,5.40
2015,03,21,16,45,5.40
2015,03,21,16,46,5.60
2015,03,21,16,47,5.60
2015,03,21,16,48,5.60
2015,03,21,16,49,5.60
2015,03,21,16,50,5.60
2015,03,21,16,51,5.60
2015,03,21,16,52,5.60
2015,03,21,16,53,5.60
2015,03,21,16,54,5.60
2015,03,21,16,55,5.60
2015,03,21,16,56,5.60
2015,03,21,16,57,5.60
2015,03,21,16,58,5.60
2015,03,21,16,59,5.60
2015,03,21,17,00,5.60
2015,03,21,17,01,5.60
2015,03,21,17,02,5.60
2015,03,21,17,03,5.60
2015,03,21,17,04,5.60
2015,03,21,17,05,5.60
2015,03,21,17,06,5.60
2015,03,21,17,07,5.60
2015,03,21,17,08,5.60
2015,03,21,17,09,5.60
2015,03,21,17,10,5.60
2015,03,21,17,11,5.60
2015,03,21,17,12,5.60
2015,03,21,17,13,5.60
2015,03,21,17,14,5.60
2015,03,21,17,15,5.60
2015,03,21,17,16,5.40
2015,03,21,17,17,5.40
2015,03,21,17,18,5.40
2015,03,21,17,19,5.40
2015,03,21,17,20,5.40
2015,03,21,17,21,5.40
2015,03,21,17,22,5.40
2015,03,21,17,23,5.40
2015,03,21,17,24,5.40
2015,03,21,17,25,5.40
2015,03,21,17,26,5.40
2015,03,21,17,27,5.40
2015,03,21,17,28,5.40
2015,03,21,17,29,5.40
2015,03,21,17,30,5.40
2015,03,21,17,31,5.50
2015,03,21,17,32,5.50
2015,03,21,17,33,5.50
2015,03,21,17,34,5.50
2015,03,21,17,35,5.50
2015,03,21,17,36,5.50
2015,03,21,17,37,5.50
2015,03,21,17,38,5.50
2015,03,21,17,39,5.50
2015,03,21,17,40,5.50
2015,03,21,17,41,5.50
2015,03,21,17,42,5.50
2015,03,21,17,43,5.50
2015,03,21,17,44,5.50
2015,03,21,17,45,5.50
2015,03,21,17,46,5.70
2015,03,21,17,47,5.70
2015,03,21,17,48,5.70
2015,03,21,17,49,5.70
2015,03,21,17,50,5.70
2015,03,21,17,51,5.70
2015,03,21,17,52,5.70
2015,03,21,17,53,5.70
2015,03,21,17,54,5.70
2015,03,21,17,55,5.70
2015,03,21,17,56,5.70
2015,03,21,17,57,5.70
2015,03,21,17,58,5.70
2015,03,21,17,59,5.70
2015,03,21,18,00,5.70
2015,03,21,18,01,5.40
2015,03,21,18,02,5.40
2015,03,21,18,03,5.40
2015,03,21,18,04,5.40
2015,03,21,18,05,5.40
2015,03,21,18,06,5.40
2015,03,21,18,07,5.40
2015,03,21,18,08,5.40